20051118,000024,1296018,33.815028,-121.854856,6.7,15.601,33.268,41.578,283.94,0.0,7.492,15.202,15.159, NaN,24.505,   NaN,13.16,1017.41,98.49,13.39,16.4,19.7,4.9,5.3,330.6,334.0,4.4,4.9,NaN, NaN,12.0,308.4,299.2,1132272024,1132272023,1,0.7,000024,000023,308.2,33.814925,-121.854773,0.57,NaN,NaN,15.605, NaN,NaN,42.8, NaN, NaN
20051118,000054,1296048,33.815026,-121.854980,6.7,15.599,33.269,41.578,306.92,0.0,7.156,15.202,15.160, NaN,24.506,   NaN,13.12,1017.45,98.49,13.42,20.6,24.7,4.7,5.3,331.0,335.2,4.3,4.9,NaN, NaN,12.0,304.2,247.1,1132272054,1132272053,1,0.5,000054,000053,304.2,33.814923,-121.854885,0.41,NaN,NaN,15.603, NaN,NaN,40.0, NaN, NaN
20051118,000124,1296078,33.815005,-121.855096,6.7,15.600,33.267,41.577,316.24,0.0,6.782,15.202,15.161, NaN,24.505,   NaN,13.06,1017.47,98.46,13.36,25.6,30.5,4.5,4.9,332.8,338.1,4.0,4.4,NaN, NaN,12.0,300.0,239.1,1132272084,1132272083,1,1.3,000084,000083,300.0,33.814920,-121.854991,0.46,NaN,NaN,15.604, NaN,NaN,39.8, NaN, NaN
20051118,000154,1296108,33.815000,-121.855206,6.7,15.596,33.270,41.576,346.54,0.0,6.745,15.200,15.159, NaN,24.507,   NaN,13.03,1017.42,98.45,13.33,28.0,31.9,4.1,4.4,333.2,337.2,3.6,3.9,NaN, NaN,12.0,300.2,250.7,1132272114,1132272114,1,1.1,000114,000114,300.2,33.814905,-121.855110,0.43,NaN,NaN,15.600, NaN,NaN,34.0, NaN, NaN
20051118,000224,1296139,33.814990,-121.855351,6.7,15.598,33.270,41.578,307.55,0.0,6.950,15.198,15.158, NaN,24.507,   NaN,13.06,1017.47,98.50,13.32,25.8,28.5,3.9,4.2,330.9,333.7,3.4,3.7,NaN, NaN,12.0,304.2,260.4,1132272144,1132272143,1,0.9,000144,000143,304.2,33.814898,-121.855256,0.63,NaN,NaN,15.602, NaN,NaN,30.3, NaN, NaN
20051118,000255,1296169,33.814993,-121.855476,6.7,15.591,33.271,41.573,240.64,0.0,6.969,15.196,15.154, NaN,24.509,   NaN,13.11,1017.38,98.58,13.33,19.3,22.1,3.7,4.1,327.0,329.8,3.3,3.6,NaN, NaN,12.0,309.5,258.5,1132272175,1132272174,1,0.5,000175,000174,309.7,33.814873,-121.855385,0.53,NaN,NaN,15.595, NaN,NaN,30.6, NaN, NaN
20051118,000324,1296198,33.814986,-121.855596,6.7,15.592,33.273,41.576,219.78,0.0,6.483,15.195,15.152, NaN,24.511,   NaN,13.15,1017.38,98.61,13.40,11.8,16.7,4.1,4.5,322.2,327.5,3.6,4.0,NaN, NaN,12.0,312.0,265.5,1132272204,1132272204,1,1.2,000204,000204,312.0,33.814868,-121.855518,0.09,NaN,NaN,15.596, NaN,NaN,24.5, NaN, NaN
20051118,000355,1296229,33.814980,-121.855686,6.7,15.584,33.277,41.573,221.15,0.0,6.315,15.192,15.150, NaN,24.516,   NaN,13.22,1017.45,98.66,13.43,10.5,15.4,4.6,4.9,323.3,328.6,4.2,4.5,NaN, NaN,12.0,313.5,295.7,1132272234,1132272234,1,0.3,000234,000234,313.5,33.814868,-121.855608,0.22,NaN,NaN,15.588, NaN,NaN,20.3, NaN, NaN
20051118,000424,1296258,33.814986,-121.855780,6.7,15.574,33.284,41.571,225.12,0.0,6.371,15.189,15.148, NaN,24.523,   NaN,13.24,1017.40,98.66,13.44,8.0,13.2,4.8,5.1,321.8,327.4,4.4,4.7,NaN, NaN,12.0,313.7,274.6,1132272264,1132272264,1,0.7,000264,000264,313.7,33.814863,-121.855711,0.25,NaN,NaN,15.578, NaN,NaN,20.1, NaN, NaN
20051118,000454,1296289,33.814973,-121.855868,6.7,15.569,33.285,41.567,208.27,0.0,6.259,15.186,15.145, NaN,24.525,   NaN,13.09,1017.39,98.54,13.41,7.1,12.5,4.6,4.9,321.1,326.9,4.3,4.5,NaN, NaN,13.0,312.8,253.6,1132272294,1132272293,1,0.4,000294,000293,312.8,33.814856,-121.855793,0.17,NaN,NaN,15.573, NaN,NaN,13.4, NaN, NaN
20051118,000525,1296319,33.814965,-121.855963,6.7,15.566,33.284,41.564,211.52,0.0,6.166,15.183,15.143, NaN,24.525,   NaN,13.09,1017.36,98.60,13.40,10.7,15.3,4.7,5.0,324.3,329.2,4.4,4.6,NaN, NaN,13.0,310.3,231.7,1132272324,1132272324,1,0.9,000325,000324,310.3,33.814851,-121.855876,0.23,NaN,NaN,15.570, NaN,NaN,10.1, NaN, NaN
20051118,000555,1296349,33.814963,-121.856060,6.6,15.565,33.282,41.561,196.34,0.0,6.240,15.178,15.135, NaN,24.524,   NaN,13.11,1017.40,98.61,13.37,14.5,19.0,4.9,5.3,325.4,330.3,4.5,4.9,NaN, NaN,13.0,304.3,244.0,1132272355,1132272354,1,0.8,000355,000354,304.5,33.814851,-121.855960,0.19,NaN,NaN,15.569, NaN,NaN,10.1, NaN, NaN
20051118,000625,1296380,33.814956,-121.856163,6.6,15.564,33.277,41.555,193.14,0.0,6.240,15.177,15.135, NaN,24.520,   NaN,13.11,1017.38,98.63,13.37,22.1,24.8,4.5,4.8,329.4,332.2,4.1,4.4,NaN, NaN,13.0,301.3,250.3,1132272385,1132272384,1,1.1,000385,000384,301.3,33.814856,-121.856061,0.33,NaN,NaN,15.568, NaN,NaN,5.5, NaN, NaN
20051118,000655,1296409,33.814951,-121.856298,6.7,15.562,33.277,41.552,194.10,0.0,6.297,15.176,15.133, NaN,24.521,   NaN,13.20,1017.30,98.72,13.43,25.3,27.7,4.4,4.8,330.7,333.1,4.0,4.4,NaN, NaN,12.0,305.0,265.7,1132272415,1132272414,1,0.9,000415,000414,304.8,33.814851,-121.856201,0.60,NaN,NaN,15.566, NaN,NaN,2.5, NaN, NaN
20051118,000724,1296438,33.814945,-121.856448,6.7,15.564,33.273,41.549,169.69,0.0,6.409,15.173,15.130, NaN,24.517,   NaN,13.13,1017.34,98.62,13.40,23.9,28.0,4.9,5.3,330.4,334.7,4.4,4.9,NaN, NaN,12.0,306.2,270.4,1132272444,1132272443,1,1.2,000444,000443,306.2,33.814840,-121.856356,0.41,NaN,NaN,15.568, NaN,NaN,2.3, NaN, NaN
20051118,000755,1296469,33.814950,-121.856590,6.8,15.562,33.275,41.549,170.24,0.0,6.483,15.171,15.128, NaN,24.519,   NaN,13.05,1017.34,98.63,13.36,25.0,29.8,5.0,5.4,334.7,339.8,4.5,4.9,NaN, NaN,12.0,310.7,261.7,1132272474,1132272474,1,1.0,000474,000474,310.7,33.814835,-121.856510,0.68,NaN,NaN,15.566, NaN,NaN,2.4, NaN, NaN
20051118,000824,1296498,33.814985,-121.856751,6.7,15.562,33.271,41.545,164.14,0.0,6.315,15.169,15.127, NaN,24.516,   NaN,13.01,1017.35,98.61,13.31,21.0,25.5,4.9,5.3,334.5,339.3,4.4,4.8,NaN, NaN,12.0,316.2,266.2,1132272504,1132272503,1,1.3,000504,000503,316.2,33.814861,-121.856688,0.70,NaN,NaN,15.566, NaN,NaN,2.3, NaN, NaN
20051118,000854,1296528,33.815010,-121.856880,6.7,15.566,33.266,41.543,151.70,0.0,6.203,15.168,15.126, NaN,24.511,   NaN,12.99,1017.41,98.65,13.28,13.3,19.2,4.9,5.3,330.4,336.8,4.4,4.8,NaN, NaN,13.0,319.0,286.7,1132272534,1132272533,1,0.8,000534,000533,319.0,33.814886,-121.856821,0.54,NaN,NaN,15.570, NaN,NaN,2.5, NaN, NaN
20051118,000924,1296558,33.815035,-121.857000,6.8,15.561,33.269,41.542,162.89,0.0,6.297,15.168,15.125, NaN,24.515,   NaN,12.99,1017.29,98.70,13.29,11.3,18.0,4.8,5.2,331.1,338.4,4.4,4.7,NaN, NaN,13.0,321.0,269.6,1132272564,1132272564,1,1.2,000564,000564,321.0,33.814901,-121.856958,0.42,NaN,NaN,15.565, NaN,NaN,1.3, NaN, NaN
20051118,000955,1296589,33.815065,-121.857110,6.7,15.560,33.268,41.540,160.98,0.0,6.465,15.168,15.125, NaN,24.515,   NaN,13.01,1017.37,98.70,13.27,9.3,13.9,4.8,5.2,331.0,336.0,4.4,4.7,NaN, NaN,13.0,321.3,278.4,1132272594,1132272594,1,0.6,000595,000594,321.3,33.814940,-121.857063,0.48,NaN,NaN,15.564, NaN,NaN,0.7, NaN, NaN
20051118,001025,1296619,33.815095,-121.857243,6.7,15.559,33.268,41.539,157.73,0.0,6.465,15.167,15.124, NaN,24.514,   NaN,13.03,1017.30,98.77,13.29,9.9,13.2,4.7,5.1,331.2,334.8,4.2,4.6,NaN, NaN,12.0,315.0,278.8,1132272624,1132272624,1,1.0,000625,000624,315.0,33.814985,-121.857173,0.58,NaN,NaN,15.563, NaN,NaN,0.7, NaN, NaN
20051118,001055,1296649,33.815143,-121.857373,6.7,15.560,33.266,41.538,156.99,0.0,6.521,15.165,15.122, NaN,24.512,   NaN,13.13,1017.38,98.83,13.33,15.0,16.3,4.3,4.9,332.3,333.3,3.9,4.5,NaN, NaN,12.0,308.5,276.1,1132272654,1132272654,1,0.5,000655,000654,308.5,33.815030,-121.857290,0.57,NaN,NaN,15.564, NaN,NaN,0.7, NaN, NaN
20051118,001125,1296679,33.815155,-121.857486,6.7,15.562,33.267,41.540,171.76,0.0,6.297,15.165,15.122, NaN,24.513,   NaN,13.23,1017.30,98.84,13.39,18.3,19.2,4.5,5.1,329.6,330.3,4.1,4.6,NaN, NaN,12.0,305.1,297.9,1132272685,1132272684,1,0.9,000685,000684,305.0,33.815050,-121.857401,0.41,NaN,NaN,15.566, NaN,NaN,0.7, NaN, NaN
20051118,001154,1296708,33.815153,-121.857620,6.7,15.561,33.266,41.539,187.33,0.0,6.297,15.164,15.122, NaN,24.513,   NaN,13.25,1017.39,98.86,13.44,22.8,26.7,5.1,5.6,329.7,333.7,4.7,5.2,NaN, NaN,14.0,300.3,258.0,1132272714,1132272714,1,0.5,000714,000714,300.3,33.815060,-121.857511,0.53,NaN,NaN,15.565, NaN,NaN,0.7, NaN, NaN
20051118,001225,1296739,33.815155,-121.857770,6.7,15.560,33.266,41.537,208.67,0.0,6.483,15.164,15.124, NaN,24.512,   NaN,13.14,1017.31,98.81,13.41,29.5,32.7,5.2,5.5,334.2,337.5,4.8,5.1,NaN, NaN,15.0,301.9,270.8,1132272744,1132272744,1,1.2,000745,000744,301.9,33.815060,-121.857665,0.72,NaN,NaN,15.564, NaN,NaN,0.7, NaN, NaN
20051118,001255,1296769,33.815153,-121.857923,6.8,15.555,33.270,41.537,209.66,0.0,6.259,15.164,15.124, NaN,24.517,   NaN,13.12,1017.32,98.81,13.41,29.4,33.7,4.9,5.2,334.7,339.3,4.5,4.8,NaN, NaN,15.0,306.0,273.0,1132272774,1132272774,1,1.2,000774,000774,306.0,33.815055,-121.857833,0.53,NaN,NaN,15.559, NaN,NaN,0.7, NaN, NaN
20051118,001324,1296799,33.815170,-121.858085,6.6,15.551,33.273,41.537,194.91,0.0,6.259,15.161,15.120, NaN,24.520,   NaN,13.04,1017.35,98.76,13.36,22.9,28.9,5.0,5.4,332.6,339.1,4.5,4.9,NaN, NaN,14.0,316.3,259.8,1132272804,1132272803,1,1.7,000804,000803,316.3,33.815061,-121.858018,0.77,NaN,NaN,15.555, NaN,NaN,0.7, NaN, NaN
20051118,001355,1296829,33.815211,-121.858236,6.7,15.550,33.271,41.534,235.55,0.0,6.278,15.160,15.116, NaN,24.518,   NaN,13.02,1017.31,98.77,13.35,14.0,16.3,5.2,5.6,332.2,334.5,4.5,4.9,NaN, NaN,13.0,327.3,265.0,1132272835,1132272834,1,1.0,000835,000834,327.3,33.815086,-121.858190,0.67,NaN,NaN,15.554, NaN,NaN,0.7, NaN, NaN
20051118,001424,1296858,33.815256,-121.858345,6.7,15.553,33.267,41.533,258.86,0.0,6.222,15.161,15.117, NaN,24.515,   NaN,13.11,1017.37,98.84,13.38,7.4,8.0,4.9,5.4,334.6,335.1,4.3,4.8,NaN, NaN,14.0,332.8,312.0,1132272864,1132272864,1,0.8,000864,000864,332.8,33.815120,-121.858335,0.38,NaN,NaN,15.557, NaN,NaN,NaN, NaN, NaN
20051118,001455,1296890,33.815293,-121.858450,6.6,15.558,33.263,41.533,232.93,0.0,6.446,15.161,15.118, NaN,24.511,   NaN,13.11,1017.41,98.84,13.38,0.9,4.1,5.0,5.2,333.5,337.0,4.5,4.8,NaN, NaN,13.0,333.7,281.7,1132272895,1132272894,1,1.0,000895,000894,333.7,33.815165,-121.858435,0.46,NaN,NaN,15.562, NaN,NaN,NaN, NaN, NaN
20051118,001525,1296919,33.815355,-121.858550,6.7,15.557,33.263,41.532,243.21,0.0,6.390,15.161,15.119, NaN,24.511,   NaN,13.04,1017.40,98.80,13.35,0.3,3.7,5.1,5.3,332.8,336.6,4.6,4.8,NaN, NaN,13.0,327.5,300.3,1132272925,1132272924,1,0.9,000925,000924,327.5,33.815235,-121.858510,0.63,NaN,NaN,15.561, NaN,NaN,NaN, NaN, NaN
20051118,001555,1296949,33.815426,-121.858646,6.7,15.559,33.262,41.532,221.80,0.0,6.259,15.160,15.117, NaN,24.509,   NaN,13.03,1017.41,98.81,13.32,6.2,10.0,4.9,5.2,334.9,339.1,4.4,4.7,NaN, NaN,13.0,323.3,315.5,1132272955,1132272954,1,0.7,000955,000954,323.3,33.815295,-121.858606,0.53,NaN,NaN,15.563, NaN,NaN,NaN, NaN, NaN
20051118,001625,1296979,33.815466,-121.858736,6.7,15.561,33.259,41.531,209.44,0.0,6.222,15.161,15.118, NaN,24.507,   NaN,13.07,1017.33,98.85,13.33,11.0,17.2,5.1,5.5,335.2,341.8,4.7,5.1,NaN, NaN,13.0,318.0,320.4,1132272985,1132272984,1,0.4,000985,000984,318.0,33.815331,-121.858675,0.39,NaN,NaN,15.565, NaN,NaN,NaN, NaN, NaN
20051118,001655,1297009,33.815485,-121.858866,6.7,15.552,33.267,41.531,210.64,0.0,6.278,15.161,15.119, NaN,24.515,   NaN,13.05,1017.38,98.85,13.31,12.6,19.1,5.7,6.1,332.0,338.9,5.3,5.6,NaN, NaN,14.0,315.2,278.5,1132273015,1132273014,1,1.2,001015,001014,315.2,33.815360,-121.858796,0.56,NaN,NaN,15.556, NaN,NaN,NaN, NaN, NaN
20051118,001725,1297040,33.815526,-121.859001,6.7,15.552,33.267,41.531,202.67,0.0,6.315,15.157,15.116, NaN,24.515,   NaN,13.04,1017.33,98.85,13.29,11.1,17.5,5.7,6.0,328.4,335.3,5.2,5.6,NaN, NaN,13.0,319.8,277.2,1132273045,1132273044,1,1.5,001045,001044,320.2,33.815398,-121.858948,0.69,NaN,NaN,15.556, NaN,NaN,NaN, NaN, NaN
20051118,001755,1297069,33.815618,-121.859166,6.7,15.551,33.267,41.531,158.22,0.0,6.446,15.157,15.116, NaN,24.516,   NaN,13.05,1017.38,98.88,13.31,7.5,12.6,5.3,5.5,329.3,335.0,4.8,5.0,NaN, NaN,13.0,329.8,318.5,1132273075,1132273074,1,1.3,001075,001074,329.8,33.815483,-121.859141,0.98,NaN,NaN,15.555, NaN,NaN,NaN, NaN, NaN
20051118,001825,1297099,33.815713,-121.859315,6.7,15.553,33.264,41.530,126.15,0.0,6.297,15.156,15.115, NaN,24.513,   NaN,13.11,1017.40,98.96,13.34,3.6,8.1,5.2,5.2,334.6,338.2,4.6,4.6,NaN, NaN,13.0,335.3,329.3,1132273104,1132273104,1,1.1,001105,001104,335.3,33.815583,-121.859303,0.97,NaN,NaN,15.557, NaN,NaN,NaN, NaN, NaN
20051118,001855,1297129,33.815803,-121.859443,6.6,15.552,33.266,41.530,114.60,0.0,6.427,15.155,15.115, NaN,24.514,   NaN,13.14,1017.35,98.93,13.33,5.9,10.7,5.4,5.5,341.2,346.5,4.8,5.0,NaN, NaN,13.0,335.3,300.0,1132273134,1132273134,1,1.4,001135,001134,335.3,33.815680,-121.859426,0.88,NaN,NaN,15.556, NaN,NaN,NaN, NaN, NaN
20051118,001925,1297159,33.815931,-121.859570,6.7,15.552,33.266,41.531,110.20,0.0,6.521,15.156,15.115, NaN,24.514,   NaN,13.01,1017.37,98.88,13.27,8.8,13.9,5.7,6.0,343.9,349.4,5.1,5.3,NaN, NaN,12.0,327.7,305.9,1132273164,1132273164,1,1.6,001164,001164,327.7,33.815815,-121.859551,1.22,NaN,NaN,15.556, NaN,NaN,NaN, NaN, NaN
20051118,001955,1297189,33.816081,-121.859770,6.6,15.554,33.262,41.528,108.34,0.0,6.427,15.154,15.114, NaN,24.511,   NaN,12.94,1017.39,98.86,13.24,12.9,17.6,5.8,6.3,342.2,347.4,5.1,5.5,NaN, NaN,13.0,319.5,300.1,1132273195,1132273194,1,1.4,001195,001194,319.5,33.815956,-121.859710,1.31,NaN,NaN,15.558, NaN,NaN,NaN, NaN, NaN
20051118,002025,1297220,33.816185,-121.859958,6.7,15.556,33.259,41.527,116.61,0.0,6.465,15.155,15.114, NaN,24.508,   NaN,12.92,1017.35,98.86,13.24,20.1,24.7,5.8,6.3,343.2,348.1,5.1,5.7,NaN, NaN,13.0,316.5,311.5,1132273224,1132273224,1,1.3,001225,001224,316.7,33.816061,-121.859893,1.21,NaN,NaN,15.560, NaN,NaN,NaN, NaN, NaN
20051118,002055,1297249,33.816255,-121.860141,6.7,15.552,33.263,41.528,126.92,0.0,6.465,15.152,15.111, NaN,24.512,   NaN,12.94,1017.36,98.87,13.22,21.2,25.7,5.7,6.3,342.2,346.8,5.0,5.6,NaN, NaN,14.0,320.3,273.9,1132273255,1132273254,1,1.0,001255,001254,320.3,33.816135,-121.860075,1.02,NaN,NaN,15.556, NaN,NaN,NaN, NaN, NaN
20051118,002125,1297279,33.816330,-121.860293,6.7,15.552,33.266,41.530,124.89,0.0,6.521,15.151,15.112, NaN,24.514,   NaN,12.94,1017.33,98.93,13.20,14.8,20.4,5.7,6.1,336.9,343.0,5.0,5.5,NaN, NaN,13.0,323.2,295.5,1132273284,1132273284,1,1.2,001285,001284,323.2,33.816198,-121.860245,0.74,NaN,NaN,15.556, NaN,NaN,NaN, NaN, NaN
20051118,002155,1297309,33.816393,-121.860426,6.7,15.552,33.262,41.527,108.56,0.0,6.838,15.154,15.113, NaN,24.511,   NaN,12.94,1017.41,98.95,13.21,10.5,17.6,5.4,5.8,334.9,342.7,4.8,5.2,NaN, NaN,13.0,326.5,311.2,1132273315,1132273314,1,0.5,001315,001314,326.8,33.816245,-121.860398,0.72,NaN,NaN,15.556, NaN,NaN,NaN, NaN, NaN
20051118,002225,1297339,33.816431,-121.860558,6.7,15.556,33.259,41.527,99.75,0.0,6.483,15.157,15.117, NaN,24.508,   NaN,13.00,1017.36,99.05,13.24,9.4,15.5,5.2,5.5,336.8,343.6,4.6,4.9,NaN, NaN,14.0,328.8,285.0,1132273345,1132273344,1,1.3,001345,001344,329.0,33.816283,-121.860530,0.49,NaN,NaN,15.560, NaN,NaN,NaN, NaN, NaN
20051118,002255,1297369,33.816456,-121.860656,6.7,15.557,33.261,41.529,98.88,0.0,6.315,15.157,15.117, NaN,24.509,   NaN,13.06,1017.38,99.08,13.27,5.2,10.0,5.3,5.5,334.7,340.0,4.7,5.0,NaN, NaN,14.0,330.7,253.9,1132273375,1132273374,1,0.3,001375,001374,330.7,33.816310,-121.860633,0.42,NaN,NaN,15.561, NaN,NaN,NaN, NaN, NaN
20051118,002325,1297400,33.816485,-121.860756,6.7,15.555,33.263,41.530,96.47,0.0,6.670,15.158,15.116, NaN,24.512,   NaN,13.04,1017.35,99.08,13.25,358.5,3.5,5.1,5.3,328.7,334.1,4.7,5.0,NaN, NaN,13.0,330.3,296.0,1132273405,1132273404,1,0.9,001405,001404,330.3,33.816343,-121.860726,0.48,NaN,NaN,15.559, NaN,NaN,NaN, NaN, NaN
20051118,002355,1297429,33.816520,-121.860843,6.7,15.557,33.262,41.531,90.58,0.0,6.689,15.158,15.117, NaN,24.511,   NaN,13.05,1017.41,99.09,13.27,359.0,4.5,4.8,5.1,329.0,335.0,4.5,4.7,NaN, NaN,12.0,328.8,297.9,1132273434,1132273433,1,0.6,001434,001433,328.8,33.816380,-121.860811,0.25,NaN,NaN,15.561, NaN,NaN,NaN, NaN, NaN
20051118,002425,1297459,33.816540,-121.860930,6.7,15.554,33.264,41.530,91.81,0.0,6.539,15.160,15.118, NaN,24.512,   NaN,13.13,1017.33,99.10,13.32,4.2,10.6,4.8,5.1,332.8,339.7,4.5,4.8,NaN, NaN,12.0,325.5,243.1,1132273465,1132273464,1,0.4,001465,001464,325.5,33.816401,-121.860890,0.37,NaN,NaN,15.558, NaN,NaN,NaN, NaN, NaN
20051118,002455,1297489,33.816565,-121.861028,6.7,15.555,33.264,41.531,91.44,0.0,6.764,15.162,15.118, NaN,24.512,   NaN,13.14,1017.37,99.10,13.34,11.1,16.1,5.1,5.4,337.7,343.0,4.7,5.1,NaN, NaN,12.0,324.0,271.5,1132273495,1132273494,1,1.1,001495,001494,324.0,33.816431,-121.860981,0.44,NaN,NaN,15.559, NaN,NaN,NaN, NaN, NaN
20051118,002525,1297519,33.816621,-121.861145,6.7,15.555,33.264,41.531,97.02,0.0,6.633,15.162,15.122, NaN,24.512,   NaN,13.12,1017.33,99.08,13.36,17.5,20.8,5.1,5.6,343.8,347.2,4.7,5.2,NaN, NaN,12.0,326.0,327.5,1132273525,1132273524,1,0.8,001525,001524,326.0,33.816483,-121.861106,0.72,NaN,NaN,15.559, NaN,NaN,NaN, NaN, NaN
20051118,002555,1297550,33.816660,-121.861278,6.8,15.557,33.262,41.531,101.81,0.0,6.502,15.164,15.126, NaN,24.511,   NaN,13.15,1017.39,99.11,13.42,11.3,16.5,5.1,5.6,338.9,344.5,4.6,5.1,NaN, NaN,12.0,330.3,301.7,1132273555,1132273554,1,0.5,001555,001554,330.3,33.816525,-121.861256,0.50,NaN,NaN,15.561, NaN,NaN,NaN, NaN, NaN
20051118,002625,1297579,33.816673,-121.861370,6.7,15.557,33.259,41.528,111.24,0.0,6.465,15.167,15.126, NaN,24.508,   NaN,13.12,1017.32,99.06,13.40,3.0,7.3,5.1,5.6,333.9,338.7,4.7,5.2,NaN, NaN,12.0,336.0,286.0,1132273585,1132273584,1,0.7,001585,001584,336.1,33.816538,-121.861351,0.13,NaN,NaN,15.561, NaN,NaN,NaN, NaN, NaN
20051118,002655,1297609,33.816690,-121.861443,6.7,15.557,33.259,41.528,118.58,0.0,6.894,15.168,15.124, NaN,24.508,   NaN,13.04,1017.35,99.06,13.32,3.3,1.5,5.2,5.5,338.8,337.4,4.8,5.1,NaN, NaN,12.0,339.5,302.3,1132273614,1132273614,1,0.5,001615,001614,339.5,33.816556,-121.861436,0.22,NaN,NaN,15.561, NaN,NaN,NaN, NaN, NaN
20051118,002725,1297639,33.816745,-121.861526,6.7,15.559,33.262,41.533,113.94,0.0,6.521,15.169,15.126, NaN,24.510,   NaN,13.01,1017.38,99.08,13.34,1.7,1.5,5.2,5.4,339.3,339.4,4.8,4.9,NaN, NaN,11.0,333.5,325.1,1132273645,1132273644,1,0.6,001645,001644,333.5,33.816606,-121.861503,0.59,NaN,NaN,15.563, NaN,NaN,NaN, NaN, NaN
20051118,002755,1297669,33.816791,-121.861620,6.6,15.558,33.263,41.533,106.50,0.0,6.595,15.169,15.126, NaN,24.511,   NaN,13.03,1017.39,99.08,13.28,3.2,8.2,5.3,5.6,337.4,342.8,4.9,5.2,NaN, NaN,11.0,327.4,297.4,1132273675,1132273674,1,0.8,001675,001674,327.4,33.816658,-121.861580,0.33,NaN,NaN,15.562, NaN,NaN,NaN, NaN, NaN
20051118,002825,1297699,33.816818,-121.861708,6.7,15.559,33.264,41.535,106.01,0.0,6.577,15.168,15.126, NaN,24.512,   NaN,13.02,1017.31,99.09,13.29,9.1,14.1,5.2,5.5,337.5,342.8,4.8,5.1,NaN, NaN,11.0,321.3,278.5,1132273704,1132273704,1,0.9,001705,001704,321.0,33.816695,-121.861650,0.34,NaN,NaN,15.563, NaN,NaN,NaN, NaN, NaN
20051118,002855,1297730,33.816845,-121.861806,6.8,15.560,33.263,41.534,106.61,0.0,6.465,15.169,15.127, NaN,24.510,   NaN,13.08,1017.31,99.15,13.33,15.5,19.2,4.8,5.1,338.3,342.1,4.5,4.8,NaN, NaN,11.0,317.3,287.1,1132273735,1132273735,1,0.3,001735,001735,317.3,33.816725,-121.861746,0.28,NaN,NaN,15.564, NaN,NaN,NaN, NaN, NaN
20051118,002925,1297759,33.816861,-121.861918,6.8,15.562,33.262,41.535,111.92,0.0,6.558,15.168,15.125, NaN,24.509,   NaN,13.19,1017.23,99.21,13.41,23.4,24.7,4.5,4.9,344.0,345.2,4.2,4.5,NaN, NaN,11.0,319.0,270.1,1132273765,1132273764,1,0.8,001765,001764,319.4,33.816741,-121.861856,0.34,NaN,NaN,15.566, NaN,NaN,NaN, NaN, NaN
20051118,002955,1297789,33.816885,-121.862030,6.7,15.560,33.262,41.534,110.60,0.0,6.539,15.168,15.125, NaN,24.510,   NaN,13.29,1017.37,99.24,13.46,24.0,23.9,4.1,4.8,346.0,345.5,3.7,4.4,NaN, NaN,11.0,322.3,268.5,1132273795,1132273795,1,1.2,001795,001795,322.3,33.816760,-121.861988,0.35,NaN,NaN,15.564, NaN,NaN,NaN, NaN, NaN
20051118,003025,1297819,33.816906,-121.862135,6.7,15.561,33.264,41.537,94.07,0.0,6.502,15.168,15.127, NaN,24.511,   NaN,13.29,1017.39,99.23,13.44,10.7,15.7,4.3,5.0,335.3,340.6,3.9,4.5,NaN, NaN,11.0,329.5,316.1,1132273825,1132273824,1,0.8,001825,001824,329.5,33.816771,-121.862103,0.26,NaN,NaN,15.565, NaN,NaN,NaN, NaN, NaN
20051118,003055,1297849,33.816915,-121.862231,6.7,15.560,33.264,41.535,90.49,0.0,6.577,15.171,15.130, NaN,24.511,   NaN,13.16,1017.37,99.18,13.42,358.2,7.4,4.9,5.3,327.8,337.7,4.5,4.9,NaN, NaN,11.0,336.3,267.6,1132273855,1132273854,1,0.6,001855,001854,336.3,33.816780,-121.862220,0.22,NaN,NaN,15.564, NaN,NaN,NaN, NaN, NaN
20051118,003125,1297879,33.816933,-121.862316,6.8,15.560,33.264,41.536,101.80,0.0,6.465,15.169,15.128, NaN,24.511,   NaN,13.09,1017.27,99.16,13.40,0.5,2.8,5.3,5.4,335.8,338.6,5.0,5.1,NaN, NaN,11.0,339.0,312.4,1132273885,1132273884,1,0.6,001885,001884,339.0,33.816800,-121.862311,0.21,NaN,NaN,15.564, NaN,NaN,NaN, NaN, NaN
20051118,003155,1297910,33.816963,-121.862381,6.8,15.560,33.265,41.537,136.56,0.0,6.465,15.170,15.128, NaN,24.512,   NaN,13.12,1017.31,99.19,13.39,3.7,357.9,5.1,5.0,342.0,336.6,4.8,4.7,NaN, NaN,11.0,340.0,30.0,1132273915,1132273914,1,0.2,001915,001914,340.0,33.816828,-121.862380,0.12,NaN,NaN,15.564, NaN,NaN,NaN, NaN, NaN
20051118,003225,1297939,33.817016,-121.862460,6.7,15.560,33.263,41.535,132.53,0.0,6.427,15.170,15.129, NaN,24.510,   NaN,13.15,1017.31,99.20,13.40,356.8,357.3,5.0,4.9,334.4,335.7,4.6,4.5,NaN, NaN,11.0,333.7,342.4,1132273945,1132273944,1,0.6,001945,001944,333.7,33.816888,-121.862445,0.50,NaN,NaN,15.564, NaN,NaN,NaN, NaN, NaN
20051118,003255,1297969,33.817098,-121.862563,6.7,15.560,33.266,41.537,130.61,0.0,6.465,15.171,15.130, NaN,24.512,   NaN,13.09,1017.31,99.15,13.36,2.1,4.1,5.1,5.2,336.2,338.4,4.7,4.8,NaN, NaN,11.0,326.8,288.1,1132273975,1132273974,1,1.1,001975,001974,326.8,33.816973,-121.862523,0.69,NaN,NaN,15.564, NaN,NaN,NaN, NaN, NaN
20051118,003325,1297999,33.817190,-121.862678,6.8,15.562,33.263,41.536,119.85,0.0,6.483,15.168,15.126, NaN,24.510,   NaN,12.97,1017.31,99.09,13.28,10.2,11.1,5.0,5.3,337.8,339.8,4.5,4.8,NaN, NaN,13.0,324.0,292.3,1132274005,1132274004,1,1.4,002005,002004,324.0,33.817056,-121.862635,0.74,NaN,NaN,15.566, NaN,NaN,NaN, NaN, NaN
20051118,003355,1298029,33.817296,-121.862816,6.7,15.560,33.266,41.538,106.95,0.0,6.390,15.167,15.124, NaN,24.512,   NaN,12.93,1017.33,99.11,13.25,10.4,17.6,4.9,5.2,336.8,344.9,4.3,4.7,NaN, NaN,14.0,326.3,297.1,1132274035,1132274035,1,1.3,002035,002035,326.3,33.817156,-121.862798,1.08,NaN,NaN,15.564, NaN,NaN,NaN, NaN, NaN
20051118,003425,1298060,33.817383,-121.862985,6.7,15.559,33.267,41.538,90.08,0.0,6.633,15.164,15.123, NaN,24.514,   NaN,12.93,1017.29,99.13,13.23,14.4,21.2,4.7,5.0,342.7,350.2,4.0,4.4,NaN, NaN,14.0,327.3,290.9,1132274065,1132274065,1,1.2,002065,002065,327.3,33.817255,-121.862965,0.90,NaN,NaN,15.563, NaN,NaN,NaN, NaN, NaN
20051118,003455,1298089,33.817458,-121.863113,6.7,15.557,33.267,41.537,85.30,0.0,6.764,15.164,15.123, NaN,24.514,   NaN,12.97,1017.29,99.20,13.24,14.3,20.1,4.5,4.9,344.0,350.3,3.9,4.3,NaN, NaN,14.0,329.2,282.4,1132274095,1132274094,1,0.9,002095,002094,329.2,33.817325,-121.863100,0.67,NaN,NaN,15.561, NaN,NaN,NaN, NaN, NaN
20051118,003525,1298119,33.817533,-121.863240,6.6,15.564,33.262,41.537,91.92,0.0,6.521,15.164,15.124, NaN,24.509,   NaN,13.07,1017.24,99.26,13.30,14.4,20.5,4.7,5.2,345.5,352.2,4.2,4.7,NaN, NaN,14.0,331.8,311.7,1132274124,1132274124,1,0.9,002125,002124,331.8,33.817403,-121.863233,0.67,NaN,NaN,15.568, NaN,NaN,NaN, NaN, NaN
20051118,003555,1298149,33.817593,-121.863358,6.7,15.560,33.264,41.536,93.06,0.0,6.539,15.166,15.124, NaN,24.511,   NaN,13.08,1017.36,99.24,13.31,16.5,22.0,5.0,5.6,349.7,355.5,4.5,5.1,NaN, NaN,14.0,332.5,274.0,1132274154,1132274154,1,1.0,002155,002154,332.5,33.817456,-121.863351,0.43,NaN,NaN,15.564, NaN,NaN,NaN, NaN, NaN
20051118,003625,1298179,33.817640,-121.863453,6.7,15.560,33.260,41.532,87.33,0.0,6.502,15.167,15.125, NaN,24.508,   NaN,13.02,1017.34,99.25,13.28,17.3,21.4,5.0,5.4,351.4,355.8,4.4,4.9,NaN, NaN,15.0,331.0,284.0,1132274184,1132274184,1,1.0,002185,002184,331.0,33.817501,-121.863435,0.64,NaN,NaN,15.564, NaN,NaN,NaN, NaN, NaN